User: anonymous   Login
Location: Caltech
(34.1382°N, 118.1253°W)
Time: 09:32:24
(UTC-08:00)
Language:

RS-15 - Orbit

View from above orbital plane
View from above orbital plane
View from above satellite
View from above satellite

Ground track
Ground track

The orbit data is extracted from the following two-line orbital elements,

1 23439U 94085A   15063.35304102 -.00000033  00000-0  28060-3 0  9996
2 23439 064.8126 131.0052 0150790 032.2266 328.7765 11.27562714831337
Epoch (UTC): 04 March 2015 08:28:22
Eccentricity: 0.0150790
inclination: 64.8126°
perigee height: 1896 km
apogee height: 2149 km
right ascension of ascending node: 131.0052°
argument of perigee: 32.2266°
revolutions per day: 11.27562714
mean anomaly at epoch: 328.7765°
orbit number at epoch: 83133

The dashed part of the orbit path shows where the satellite is in the earth's shadow,  

DLR